Time,TemperatureF,DewpointF,PressureIn,WindDirection,WindDirectionDegrees,WindSpeedMPH,WindSpeedGustMPH,Humidity,HourlyPrecipIn,Conditions,Clouds,dailyrainin,SoftwareType,DateUTC
2013-03-07 00:00:00,56.2,44.2,30.16,North,3,5.4,16.1,64,0.00,CLR,OVC,0.00,WeatherDisplay:10.37,2013-03-07 05:00:00,
2013-03-07 00:01:00,56.2,44.2,30.16,NNE,25,6.7,9.2,64,0.00,CLR,OVC,0.00,WeatherDisplay:10.37,2013-03-07 05:01:00,
2013-03-07 00:06:00,56.2,44.6,30.16,North,6,8.4,12.7,65,0.00,CLR,OVC,0.00,WeatherDisplay:10.37,2013-03-07 05:06:00,
2013-03-07 00:11:00,56.0,44.0,30.16,NNW,346,6.8,10.4,64,0.00,CLR,OVC,0.00,WeatherDisplay:10.37,2013-03-07 05:11:00,
2013-03-07 00:16:00,55.9,43.9,30.16,NNW,343,5.1,8.1,64,0.00,CLR,OVC,0.00,WeatherDisplay:10.37,2013-03-07 05:16:00,
2013-03-07 00:21:00,56.0,44.0,30.17,NNE,30,6.5,19.6,64,0.00,CLR,OVC,0.00,WeatherDisplay:10.37,2013-03-07 05:21:00,
2013-03-07 00:26:00,55.8,44.2,30.17,WNW,301,6.1,11.8,65,0.00,CLR,OVC,0.00,WeatherDisplay:10.37,2013-03-07 05:26:00,
2013-03-07 00:31:00,55.5,43.9,30.17,NE,52,7.3,12.7,65,0.00,CLR,OVC,0.00,WeatherDisplay:10.37,2013-03-07 05:31:00,
2013-03-07 00:36:00,55.5,43.9,30.17,NNE,14,7.5,9.4,65,0.00,CLR,OVC,0.00,WeatherDisplay:10.37,2013-03-07 05:36:00,
2013-03-07 00:41:00,55.4,44.2,30.17,North,360,8.1,10.4,66,0.00,CLR,OVC,0.00,WeatherDisplay:10.37,2013-03-07 05:41:00,
2013-03-07 00:46:00,55.3,44.1,30.17,NNE,13,6.4,12.7,66,0.00,CLR,OVC,0.00,WeatherDisplay:10.37,2013-03-07 05:46:00,
2013-03-07 00:51:00,55.3,44.1,30.17,North,360,3.6,6.9,66,0.00,CLR,OVC,0.00,WeatherDisplay:10.37,2013-03-07 05:51:00,
2013-03-07 00:56:00,55.2,44.0,30.17,North,8,4.4,8.1,66,0.00,CLR,OVC,0.00,WeatherDisplay:10.37,2013-03-07 05:56:00,
2013-03-07 01:01:00,55.2,44.0,30.17,NE,48,4.7,4.7,66,0.00,CLR,OVC,0.00,WeatherDisplay:10.37,2013-03-07 06:01:00,
2013-03-07 01:06:00,55.0,43.8,30.17,ENE,68,4.0,9.2,66,0.00,CLR,OVC,0.00,WeatherDisplay:10.37,2013-03-07 06:06:00,
2013-03-07 01:11:00,54.9,43.7,30.17,NE,38,3.5,6.9,66,0.00,CLR,OVC,0.00,WeatherDisplay:10.37,2013-03-07 06:11:00,
2013-03-07 01:16:00,54.8,43.7,30.17,North,8,5.1,5.8,66,0.00,CLR,OVC,0.00,WeatherDisplay:10.37,2013-03-07 06:16:00,
2013-03-07 01:21:00,54.6,43.1,30.17,NE,37,2.9,6.9,65,0.00,CLR,OVC,0.00,WeatherDisplay:10.37,2013-03-07 06:21:00,
2013-03-07 01:26:00,54.5,43.0,30.17,NE,38,4.4,8.1,65,0.00,CLR,OVC,0.00,WeatherDisplay:10.37,2013-03-07 06:26:00,
2013-03-07 01:31:00,54.3,42.4,30.17,North,11,5.9,9.2,64,0.00,CLR,OVC,0.00,WeatherDisplay:10.37,2013-03-07 06:31:00,
2013-03-07 01:36:00,54.2,42.3,30.17,North,360,2.8,4.6,64,0.00,CLR,OVC,0.00,WeatherDisplay:10.37,2013-03-07 06:36:00,
2013-03-07 01:41:00,53.9,42.0,30.17,NNE,27,5.5,8.1,64,0.00,CLR,OVC,0.00,WeatherDisplay:10.37,2013-03-07 06:41:00,
2013-03-07 01:46:00,53.8,41.9,30.17,ENE,64,4.7,8.1,64,0.00,CLR,OVC,0.00,WeatherDisplay:10.37,2013-03-07 06:46:00,
2013-03-07 01:51:00,53.7,41.8,30.17,NW,323,5.4,6.9,64,0.00,CLR,OVC,0.00,WeatherDisplay:10.37,2013-03-07 06:51:00,
2013-03-07 01:56:00,53.5,41.6,30.17,ENE,73,4.3,8.1,64,0.00,CLR,OVC,0.00,WeatherDisplay:10.37,2013-03-07 06:56:00,
2013-03-07 02:01:00,53.5,41.6,30.17,NE,37,5.1,7.8,64,0.00,CLR,OVC,0.00,WeatherDisplay:10.37,2013-03-07 07:01:00,
2013-03-07 02:06:00,53.5,41.6,30.17,NNE,32,2.4,6.9,64,0.00,CLR,OVC,0.00,WeatherDisplay:10.37,2013-03-07 07:06:00,
2013-03-07 02:11:00,53.4,41.5,30.17,NE,40,4.6,8.1,64,0.00,CLR,OVC,0.00,WeatherDisplay:10.37,2013-03-07 07:11:00,
2013-03-07 02:16:00,53.2,41.3,30.16,North,356,5.0,6.4,64,0.00,CLR,OVC,0.00,WeatherDisplay:10.37,2013-03-07 07:16:00,
2013-03-07 02:21:00,53.2,41.3,30.17,North,7,4.1,13.8,64,0.00,CLR,OVC,0.00,WeatherDisplay:10.37,2013-03-07 07:21:00,
2013-03-07 02:26:00,53.1,41.2,30.17,NNE,21,2.3,8.1,64,0.00,CLR,OVC,0.00,WeatherDisplay:10.37,2013-03-07 07:26:00,
2013-03-07 02:31:00,53.0,41.1,30.16,NNE,18,4.5,6.9,64,0.00,CLR,OVC,0.00,WeatherDisplay:10.37,2013-03-07 07:31:00,
2013-03-07 02:36:00,53.0,41.1,30.16,NNE,31,4.2,4.6,64,0.00,CLR,OVC,0.00,WeatherDisplay:10.37,2013-03-07 07:36:00,
2013-03-07 02:42:00,52.9,41.0,30.16,NE,44,2.9,4.6,64,0.00,CLR,OVC,0.00,WeatherDisplay:10.37,2013-03-07 07:42:00,
2013-03-07 02:47:00,52.9,41.0,30.16,WNW,296,4.3,6.9,64,0.00,CLR,OVC,0.00,WeatherDisplay:10.37,2013-03-07 07:47:00,
2013-03-07 02:52:00,52.7,40.9,30.16,NE,47,4.2,6.9,64,0.00,CLR,OVC,0.00,WeatherDisplay:10.37,2013-03-07 07:52:00,
2013-03-07 02:57:00,52.6,40.8,30.16,NNE,18,4.3,6.9,64,0.00,CLR,OVC,0.00,WeatherDisplay:10.37,2013-03-07 07:57:00,
2013-03-07 03:02:00,52.4,40.6,30.16,North,360,5.7,9.2,64,0.00,CLR,OVC,0.00,WeatherDisplay:10.37,2013-03-07 08:02:00,
2013-03-07 03:07:00,52.2,40.4,30.16,NE,45,4.0,6.9,64,0.00,CLR,OVC,0.00,WeatherDisplay:10.37,2013-03-07 08:07:00,
2013-03-07 03:12:00,52.3,40.5,30.16,NNW,335,3.2,6.9,64,0.00,CLR,OVC,0.00,WeatherDisplay:10.37,2013-03-07 08:12:00,
2013-03-07 03:17:00,52.1,40.7,30.16,NNW,339,2.4,5.3,65,0.00,CLR,OVC,0.00,WeatherDisplay:10.37,2013-03-07 08:17:00,
2013-03-07 03:22:00,52.1,40.7,30.16,NNE,18,1.2,4.2,65,0.00,CLR,OVC,0.00,WeatherDisplay:10.37,2013-03-07 08:22:00,
2013-03-07 03:27:00,52.1,40.7,30.16,NE,55,1.8,4.6,65,0.00,CLR,OVC,0.00,WeatherDisplay:10.37,2013-03-07 08:27:00,
2013-03-07 03:32:00,52.1,40.7,30.16,NNE,16,2.0,4.6,65,0.00,CLR,OVC,0.00,WeatherDisplay:10.37,2013-03-07 08:32:00,
2013-03-07 03:37:00,52.0,40.6,30.16,NE,45,1.5,2.3,65,0.00,CLR,OVC,0.00,WeatherDisplay:10.37,2013-03-07 08:37:00,
2013-03-07 03:42:00,52.0,41.0,30.16,NE,35,3.7,4.6,66,0.00,CLR,OVC,0.00,WeatherDisplay:10.37,2013-03-07 08:42:00,
2013-03-07 03:47:00,51.9,40.9,30.17,NE,48,3.5,3.8,66,0.00,CLR,OVC,0.00,WeatherDisplay:10.37,2013-03-07 08:47:00,
2013-03-07 03:52:00,52.0,41.0,30.17,North,1,2.9,4.6,66,0.00,CLR,OVC,0.00,WeatherDisplay:10.37,2013-03-07 08:52:00,
2013-03-07 03:57:00,51.9,43.5,30.17,NE,44,2.5,4.6,73,0.00,CLR,OVC,0.00,WeatherDisplay:10.37,2013-03-07 08:57:00,
2013-03-07 04:03:00,51.8,45.2,30.17,NE,38,1.4,4.6,78,0.00,CLR,OVC,0.00,WeatherDisplay:10.37,2013-03-07 09:03:00,
2013-03-07 04:08:00,51.7,45.1,30.17,NNE,24,2.4,3.5,78,0.00,CLR,OVC,0.00,WeatherDisplay:10.37,2013-03-07 09:08:00,
2013-03-07 04:13:00,51.3,44.7,30.17,NE,34,3.2,5.8,78,0.00,CLR,OVC,0.00,WeatherDisplay:10.37,2013-03-07 09:13:00,
2013-03-07 04:18:00,51.1,44.8,30.17,NE,44,2.1,2.3,79,0.00,CLR,OVC,0.00,WeatherDisplay:10.37,2013-03-07 09:18:00,
2013-03-07 04:23:00,50.8,45.2,30.17,NNE,30,2.6,4.6,81,0.00,CLR,OVC,0.00,WeatherDisplay:10.37,2013-03-07 09:23:00,
2013-03-07 04:28:00,50.7,44.8,30.17,ENE,62,2.2,3.5,80,0.00,CLR,OVC,0.00,WeatherDisplay:10.37,2013-03-07 09:28:00,
2013-03-07 04:33:00,50.7,45.1,30.17,ENE,71,1.7,2.3,81,0.00,CLR,OVC,0.00,WeatherDisplay:10.37,2013-03-07 09:33:00,
2013-03-07 04:38:00,50.3,44.4,30.17,NE,48,3.0,4.6,80,0.00,CLR,OVC,0.00,WeatherDisplay:10.37,2013-03-07 09:38:00,
2013-03-07 04:43:00,50.2,44.9,30.17,ENE,59,2.0,3.5,82,0.00,CLR,OVC,0.00,WeatherDisplay:10.37,2013-03-07 09:43:00,
2013-03-07 04:48:00,50.1,44.8,30.17,NE,54,2.5,3.5,82,0.00,CLR,OVC,0.00,WeatherDisplay:10.37,2013-03-07 09:48:00,
2013-03-07 04:53:00,50.1,45.1,30.17,NE,42,3.3,4.6,83,0.00,CLR,OVC,0.00,WeatherDisplay:10.37,2013-03-07 09:53:00,
2013-03-07 04:58:00,50.0,44.7,30.17,NNE,21,4.1,6.3,82,0.00,CLR,OVC,0.00,WeatherDisplay:10.37,2013-03-07 09:58:00,
2013-03-07 05:03:00,49.9,44.6,30.18,NE,41,3.6,5.8,82,0.00,CLR,OVC,0.00,WeatherDisplay:10.37,2013-03-07 10:03:00,
2013-03-07 05:08:00,49.8,44.2,30.18,ENE,75,4.1,5.8,81,0.00,CLR,OVC,0.00,WeatherDisplay:10.37,2013-03-07 10:08:00,
2013-03-07 05:13:00,49.7,44.1,30.17,NNE,16,3.8,6.9,81,0.00,CLR,OVC,0.00,WeatherDisplay:10.37,2013-03-07 10:13:00,
2013-03-07 05:18:00,49.6,43.7,30.18,NE,34,3.1,6.9,80,0.00,CLR,OVC,0.00,WeatherDisplay:10.37,2013-03-07 10:18:00,
2013-03-07 05:23:00,49.6,44.3,30.18,NE,52,3.9,6.9,82,0.00,CLR,OVC,0.00,WeatherDisplay:10.37,2013-03-07 10:23:00,
2013-03-07 05:28:00,49.6,43.7,30.18,NE,45,1.8,3.5,80,0.00,CLR,OVC,0.00,WeatherDisplay:10.37,2013-03-07 10:28:00,
2013-03-07 05:33:00,49.4,43.5,30.19,NE,41,3.7,5.5,80,0.00,CLR,OVC,0.00,WeatherDisplay:10.37,2013-03-07 10:33:00,
2013-03-07 05:38:00,49.3,43.1,30.19,East,82,3.5,3.5,79,0.00,CLR,OVC,0.00,WeatherDisplay:10.37,2013-03-07 10:38:00,
2013-03-07 05:43:00,49.2,42.3,30.19,NNE,27,5.5,9.2,77,0.00,CLR,OVC,0.00,WeatherDisplay:10.37,2013-03-07 10:43:00,
2013-03-07 05:48:00,49.0,41.8,30.19,NNE,18,2.8,4.6,76,0.00,CLR,OVC,0.00,WeatherDisplay:10.37,2013-03-07 10:48:00,
2013-03-07 05:54:00,49.0,41.8,30.19,NE,48,2.6,4.6,76,0.00,CLR,OVC,0.00,WeatherDisplay:10.37,2013-03-07 10:54:00,
2013-03-07 05:59:00,48.9,42.0,30.20,ENE,61,3.9,5.8,77,0.00,CLR,OVC,0.00,WeatherDisplay:10.37,2013-03-07 10:59:00,
2013-03-07 06:04:00,48.8,41.6,30.20,NE,37,2.3,6.9,76,0.00,CLR,OVC,0.00,WeatherDisplay:10.37,2013-03-07 11:04:00,
2013-03-07 06:09:00,48.7,41.5,30.20,NNE,17,0.3,6.9,76,0.00,CLR,OVC,0.00,WeatherDisplay:10.37,2013-03-07 11:09:00,
2013-03-07 06:14:00,48.6,41.4,30.20,NNE,30,2.7,3.5,76,0.00,CLR,OVC,0.00,WeatherDisplay:10.37,2013-03-07 11:14:00,
2013-03-07 06:19:00,48.5,40.9,30.20,NE,49,1.0,2.3,75,0.00,CLR,OVC,0.00,WeatherDisplay:10.37,2013-03-07 11:19:00,
2013-03-07 06:24:00,48.5,40.6,30.20,NE,49,2.4,5.8,74,0.00,CLR,OVC,0.00,WeatherDisplay:10.37,2013-03-07 11:24:00,
2013-03-07 06:29:00,48.3,40.0,30.20,NE,38,3.8,8.5,73,0.00,CLR,OVC,0.00,WeatherDisplay:10.37,2013-03-07 11:29:00,
2013-03-07 06:34:00,48.0,39.0,30.19,NNE,14,6.3,9.2,71,0.00,CLR,OVC,0.00,WeatherDisplay:10.37,2013-03-07 11:34:00,
2013-03-07 06:39:00,47.8,38.8,30.20,NE,47,4.4,8.1,71,0.00,CLR,OVC,0.00,WeatherDisplay:10.37,2013-03-07 11:39:00,
2013-03-07 06:44:00,47.8,38.8,30.20,NE,52,4.0,8.1,71,0.00,CLR,OVC,0.00,WeatherDisplay:10.37,2013-03-07 11:44:00,
2013-03-07 06:49:00,47.6,38.7,30.20,NE,51,4.5,6.9,71,0.00,CLR,OVC,0.00,WeatherDisplay:10.37,2013-03-07 11:49:00,
2013-03-07 06:54:00,47.6,38.3,30.21,ENE,61,0.9,2.4,70,0.00,CLR,OVC,0.00,WeatherDisplay:10.37,2013-03-07 11:54:00,
2013-03-07 06:59:00,47.5,38.2,30.21,ESE,112,4.4,8.1,70,0.00,CLR,OVC,0.00,WeatherDisplay:10.37,2013-03-07 11:59:00,
2013-03-07 07:04:00,47.7,38.4,30.21,NE,42,3.2,4.6,70,0.00,CLR,OVC,0.00,WeatherDisplay:10.37,2013-03-07 12:04:00,
2013-03-07 07:10:00,47.6,38.3,30.21,NE,44,4.8,8.1,70,0.00,CLR,OVC,0.00,WeatherDisplay:10.37,2013-03-07 12:10:00,
2013-03-07 07:15:00,47.6,37.9,30.22,NNE,31,7.2,8.1,69,0.00,CLR,OVC,0.00,WeatherDisplay:10.37,2013-03-07 12:15:00,
2013-03-07 07:20:00,47.5,38.2,30.22,NE,41,3.3,6.9,70,0.00,CLR,OVC,0.00,WeatherDisplay:10.37,2013-03-07 12:20:00,
2013-03-07 07:25:00,47.6,37.9,30.22,North,6,7.4,10.4,69,0.00,CLR,OVC,0.00,WeatherDisplay:10.37,2013-03-07 12:25:00,
2013-03-07 07:30:00,47.9,39.3,30.22,NNE,27,4.0,7.0,72,0.00,CLR,OVC,0.00,WeatherDisplay:10.37,2013-03-07 12:30:00,
2013-03-07 07:35:00,48.0,39.4,30.22,East,80,3.0,5.5,72,0.00,CLR,OVC,0.00,WeatherDisplay:10.37,2013-03-07 12:35:00,
2013-03-07 07:40:00,48.0,39.8,30.22,ENE,59,4.0,6.9,73,0.00,CLR,OVC,0.00,WeatherDisplay:10.37,2013-03-07 12:40:00,
2013-03-07 07:45:00,47.9,39.3,30.23,North,360,4.3,7.8,72,0.00,CLR,OVC,0.00,WeatherDisplay:10.37,2013-03-07 12:45:00,
2013-03-07 07:50:00,48.0,39.4,30.23,North,7,6.0,8.1,72,0.00,CLR,OVC,0.00,WeatherDisplay:10.37,2013-03-07 12:50:00,
2013-03-07 07:55:00,48.1,39.9,30.23,NNE,25,4.0,6.9,73,0.00,CLR,OVC,0.00,WeatherDisplay:10.37,2013-03-07 12:55:00,
2013-03-07 08:01:00,48.2,39.2,30.24,NE,34,4.1,8.1,71,0.00,CLR,OVC,0.00,WeatherDisplay:10.37,2013-03-07 13:01:00,
2013-03-07 08:06:00,48.5,39.2,30.24,NE,41,6.3,8.1,70,0.00,CLR,OVC,0.00,WeatherDisplay:10.37,2013-03-07 13:06:00,
2013-03-07 08:11:00,48.8,39.4,30.24,NE,37,5.6,8.1,70,0.00,CLR,OVC,0.00,WeatherDisplay:10.37,2013-03-07 13:11:00,
2013-03-07 08:16:00,48.9,39.2,30.24,ENE,71,4.9,9.2,69,0.00,CLR,OVC,0.00,WeatherDisplay:10.37,2013-03-07 13:16:00,
2013-03-07 08:21:00,49.3,39.2,30.24,ESE,110,8.2,15.0,68,0.00,CLR,OVC,0.00,WeatherDisplay:10.37,2013-03-07 13:21:00,
2013-03-07 08:26:00,49.4,39.3,30.25,NNE,31,4.6,9.2,68,0.00,CLR,OVC,0.00,WeatherDisplay:10.37,2013-03-07 13:26:00,
2013-03-07 08:31:00,49.6,39.1,30.25,NNE,18,4.9,10.4,67,0.00,CLR,OVC,0.00,WeatherDisplay:10.37,2013-03-07 13:31:00,
2013-03-07 08:36:00,49.9,39.8,30.25,NNE,13,6.9,9.2,68,0.00,CLR,OVC,0.00,WeatherDisplay:10.37,2013-03-07 13:36:00,
2013-03-07 08:41:00,50.2,39.3,30.25,ENE,68,4.3,9.2,66,0.00,CLR,OVC,0.00,WeatherDisplay:10.37,2013-03-07 13:41:00,
2013-03-07 08:46:00,50.5,39.6,30.25,NNE,24,7.2,10.4,66,0.00,CLR,OVC,0.00,WeatherDisplay:10.37,2013-03-07 13:46:00,
2013-03-07 08:51:00,50.7,40.1,30.24,NE,41,8.4,9.2,67,0.00,CLR,OVC,0.00,WeatherDisplay:10.37,2013-03-07 13:51:00,
2013-03-07 08:56:00,51.0,39.2,30.25,WNW,299,5.5,5.7,64,0.00,CLR,OVC,0.00,WeatherDisplay:10.37,2013-03-07 13:56:00,
2013-03-07 09:01:00,51.3,38.7,30.25,NE,37,10.3,11.5,62,0.00,CLR,OVC,0.00,WeatherDisplay:10.37,2013-03-07 14:01:00,
2013-03-07 09:06:00,51.5,38.5,30.25,ENE,61,8.8,12.7,61,0.00,CLR,OVC,0.00,WeatherDisplay:10.37,2013-03-07 14:06:00,
2013-03-07 09:11:00,51.7,38.7,30.25,NE,34,7.4,8.1,61,0.00,CLR,OVC,0.00,WeatherDisplay:10.37,2013-03-07 14:11:00,
2013-03-07 09:16:00,51.9,38.4,30.25,NE,47,7.0,8.1,60,0.00,CLR,OVC,0.00,WeatherDisplay:10.37,2013-03-07 14:16:00,
2013-03-07 09:21:00,52.1,38.6,30.25,North,8,4.3,11.5,60,0.00,CLR,OVC,0.00,WeatherDisplay:10.37,2013-03-07 14:21:00,
2013-03-07 09:26:00,52.5,38.6,30.25,ESE,102,2.8,9.2,59,0.00,CLR,OVC,0.00,WeatherDisplay:10.37,2013-03-07 14:26:00,
2013-03-07 09:32:00,52.9,39.0,30.25,ENE,65,6.0,9.2,59,0.00,CLR,OVC,0.00,WeatherDisplay:10.37,2013-03-07 14:32:00,
2013-03-07 09:37:00,53.1,38.7,30.25,NE,55,7.4,11.5,58,0.00,CLR,OVC,0.00,WeatherDisplay:10.37,2013-03-07 14:37:00,
2013-03-07 09:42:00,53.5,39.1,30.25,NNW,340,4.2,8.1,58,0.00,CLR,OVC,0.00,WeatherDisplay:10.37,2013-03-07 14:42:00,
2013-03-07 09:47:00,53.8,38.5,30.25,NW,319,4.8,9.2,56,0.00,CLR,OVC,0.00,WeatherDisplay:10.37,2013-03-07 14:47:00,
2013-03-07 09:52:00,54.1,38.7,30.25,NNE,16,4.7,8.1,56,0.00,CLR,OVC,0.00,WeatherDisplay:10.37,2013-03-07 14:52:00,
2013-03-07 09:57:00,54.5,39.1,30.25,NE,49,6.5,10.4,56,0.00,CLR,OVC,0.00,WeatherDisplay:10.37,2013-03-07 14:57:00,
2013-03-07 10:02:00,54.8,38.5,30.25,North,11,3.8,11.5,54,0.00,CLR,OVC,0.00,WeatherDisplay:10.37,2013-03-07 15:02:00,
2013-03-07 10:07:00,55.2,39.3,30.26,North,360,7.2,10.4,55,0.00,CLR,OVC,0.00,WeatherDisplay:10.37,2013-03-07 15:07:00,
2013-03-07 10:12:00,55.6,39.2,30.26,East,96,5.4,9.2,54,0.00,CLR,OVC,0.00,WeatherDisplay:10.37,2013-03-07 15:12:00,
2013-03-07 10:17:00,55.8,39.4,30.26,NNW,343,4.0,8.9,54,0.00,CLR,OVC,0.00,WeatherDisplay:10.37,2013-03-07 15:17:00,
2013-03-07 10:22:00,56.0,39.1,30.26,NNE,14,5.2,7.6,53,0.00,CLR,OVC,0.00,WeatherDisplay:10.37,2013-03-07 15:22:00,
2013-03-07 10:27:00,56.3,39.9,30.26,NNE,16,3.8,5.8,54,0.00,CLR,OVC,0.00,WeatherDisplay:10.37,2013-03-07 15:27:00,
2013-03-07 10:32:00,56.9,39.9,30.26,ENE,75,3.2,6.9,53,0.00,CLR,OVC,0.00,WeatherDisplay:10.37,2013-03-07 15:32:00,
2013-03-07 10:37:00,57.2,40.2,30.26,NNW,335,4.0,5.8,53,0.00,CLR,OVC,0.00,WeatherDisplay:10.37,2013-03-07 15:37:00,
2013-03-07 10:42:00,57.3,38.8,30.26,NE,56,4.6,6.9,50,0.00,CLR,OVC,0.00,WeatherDisplay:10.37,2013-03-07 15:42:00,
2013-03-07 10:48:00,57.9,40.4,30.26,East,92,1.9,3.5,52,0.00,CLR,OVC,0.00,WeatherDisplay:10.37,2013-03-07 15:48:00,
2013-03-07 10:53:00,58.1,39.5,30.26,North,8,4.5,6.9,50,0.00,CLR,OVC,0.00,WeatherDisplay:10.37,2013-03-07 15:53:00,
2013-03-07 10:58:00,58.4,39.8,30.26,ESE,112,3.0,4.6,50,0.00,CLR,OVC,0.00,WeatherDisplay:10.37,2013-03-07 15:58:00,
2013-03-07 11:03:00,58.3,38.7,30.26,NW,316,2.7,5.8,48,0.00,CLR,OVC,0.00,WeatherDisplay:10.37,2013-03-07 16:03:00,
2013-03-07 11:08:00,59.0,40.4,30.26,ENE,68,4.3,5.8,50,0.00,CLR,OVC,0.00,WeatherDisplay:10.37,2013-03-07 16:08:00,
2013-03-07 11:13:00,59.3,40.1,30.26,North,357,6.2,10.4,49,0.00,CLR,OVC,0.00,WeatherDisplay:10.37,2013-03-07 16:13:00,
2013-03-07 11:18:00,58.9,40.3,30.26,NNW,343,6.7,8.1,50,0.00,CLR,OVC,0.00,WeatherDisplay:10.37,2013-03-07 16:18:00,
2013-03-07 11:23:00,59.4,40.7,30.25,North,6,2.7,4.7,50,0.00,CLR,OVC,0.00,WeatherDisplay:10.37,2013-03-07 16:23:00,
2013-03-07 11:29:00,59.8,40.1,30.25,North,6,5.1,8.1,48,0.00,CLR,OVC,0.00,WeatherDisplay:10.37,2013-03-07 16:29:00,
2013-03-07 11:34:00,60.5,41.2,30.25,North,8,2.7,4.6,49,0.00,CLR,OVC,0.00,WeatherDisplay:10.37,2013-03-07 16:34:00,
2013-03-07 11:39:00,60.9,41.1,30.25,NNE,18,3.6,4.6,48,0.00,CLR,OVC,0.00,WeatherDisplay:10.37,2013-03-07 16:39:00,
2013-03-07 11:44:00,60.8,39.3,30.25,NW,326,4.2,4.6,45,0.00,CLR,OVC,0.00,WeatherDisplay:10.37,2013-03-07 16:44:00,
2013-03-07 11:49:00,59.5,39.8,30.26,NW,316,7.1,10.4,48,0.00,CLR,OVC,0.00,WeatherDisplay:10.37,2013-03-07 16:49:00,
2013-03-07 11:54:00,59.5,40.3,30.25,NW,313,4.8,5.6,49,0.00,CLR,OVC,0.00,WeatherDisplay:10.37,2013-03-07 16:54:00,
2013-03-07 11:59:00,60.6,41.3,30.26,NNW,333,2.5,6.5,49,0.00,CLR,OVC,0.00,WeatherDisplay:10.37,2013-03-07 16:59:00,
2013-03-07 12:04:00,61.3,41.4,30.25,NW,305,8.7,13.8,48,0.00,CLR,OVC,0.00,WeatherDisplay:10.37,2013-03-07 17:04:00,
2013-03-07 12:10:00,61.5,42.2,30.26,NW,311,7.6,11.5,49,0.00,CLR,OVC,0.00,WeatherDisplay:10.37,2013-03-07 17:10:00,
2013-03-07 12:15:00,61.4,42.1,30.26,NNE,16,4.8,7.4,49,0.00,CLR,OVC,0.00,WeatherDisplay:10.37,2013-03-07 17:15:00,
2013-03-07 12:20:00,61.9,42.5,30.26,NW,312,6.0,9.2,49,0.00,CLR,OVC,0.00,WeatherDisplay:10.37,2013-03-07 17:20:00,
2013-03-07 12:25:00,62.2,42.3,30.26,NNW,333,6.8,11.5,48,0.00,CLR,OVC,0.00,WeatherDisplay:10.37,2013-03-07 17:25:00,
2013-03-07 12:30:00,62.6,42.6,30.26,North,360,6.9,12.7,48,0.00,CLR,OVC,0.00,WeatherDisplay:10.37,2013-03-07 17:30:00,
2013-03-07 12:35:00,62.2,41.7,30.25,NW,322,6.0,13.0,47,0.00,CLR,OVC,0.00,WeatherDisplay:10.37,2013-03-07 17:35:00,
2013-03-07 12:40:00,62.2,41.7,30.25,West,277,6.4,11.5,47,0.00,CLR,OVC,0.00,WeatherDisplay:10.37,2013-03-07 17:40:00,
2013-03-07 12:45:00,62.0,41.0,30.25,NW,315,6.2,11.5,46,0.00,CLR,OVC,0.00,WeatherDisplay:10.37,2013-03-07 17:45:00,
2013-03-07 12:50:00,62.4,41.9,30.25,NW,318,6.3,9.2,47,0.00,CLR,OVC,0.00,WeatherDisplay:10.37,2013-03-07 17:50:00,
2013-03-07 12:55:00,62.8,41.1,30.25,WNW,298,8.0,12.7,45,0.00,CLR,OVC,0.00,WeatherDisplay:10.37,2013-03-07 17:55:00,
2013-03-07 13:00:00,62.8,40.5,30.24,NW,316,7.2,10.4,44,0.00,CLR,OVC,0.00,WeatherDisplay:10.37,2013-03-07 18:00:00,
2013-03-07 13:05:00,63.4,41.1,30.24,NW,320,5.8,9.2,44,0.00,CLR,OVC,0.00,WeatherDisplay:10.37,2013-03-07 18:05:00,
2013-03-07 13:10:00,63.6,38.8,30.23,North,11,10.0,16.1,40,0.00,CLR,OVC,0.00,WeatherDisplay:10.37,2013-03-07 18:10:00,
2013-03-07 13:15:00,64.1,39.9,30.23,NW,318,8.6,15.0,41,0.00,CLR,OVC,0.00,WeatherDisplay:10.37,2013-03-07 18:15:00,
2013-03-07 13:20:00,63.5,40.0,30.23,NNW,340,8.1,12.7,42,0.00,CLR,OVC,0.00,WeatherDisplay:10.37,2013-03-07 18:20:00,
2013-03-07 13:25:00,63.5,41.2,30.23,NW,318,9.3,18.4,44,0.00,CLR,OVC,0.00,WeatherDisplay:10.37,2013-03-07 18:25:00,
2013-03-07 13:30:00,64.0,41.0,30.23,NNE,21,8.9,12.7,43,0.00,CLR,OVC,0.00,WeatherDisplay:10.37,2013-03-07 18:30:00,
2013-03-07 13:35:00,64.6,39.7,30.23,WSW,244,7.9,13.8,40,0.00,CLR,OVC,0.00,WeatherDisplay:10.37,2013-03-07 18:35:00,
2013-03-07 13:40:00,64.4,40.2,30.23,NNW,342,6.9,15.0,41,0.00,CLR,OVC,0.00,WeatherDisplay:10.37,2013-03-07 18:40:00,
2013-03-07 13:45:00,64.7,40.4,30.23,North,360,6.2,11.5,41,0.00,CLR,OVC,0.00,WeatherDisplay:10.37,2013-03-07 18:45:00,
2013-03-07 13:50:00,65.3,39.7,30.23,NW,304,6.6,10.4,39,0.00,CLR,OVC,0.00,WeatherDisplay:10.37,2013-03-07 18:50:00,
2013-03-07 13:55:00,64.7,39.8,30.23,NE,40,7.1,16.1,40,0.00,CLR,OVC,0.00,WeatherDisplay:10.37,2013-03-07 18:55:00,
2013-03-07 14:01:00,64.1,39.9,30.22,WNW,294,6.4,15.0,41,0.00,CLR,OVC,0.00,WeatherDisplay:10.37,2013-03-07 19:01:00,
2013-03-07 14:06:00,64.6,41.0,30.22,North,352,4.2,13.8,42,0.00,CLR,OVC,0.00,WeatherDisplay:10.37,2013-03-07 19:06:00,
2013-03-07 14:11:00,64.9,40.6,30.22,North,354,6.4,10.4,41,0.00,CLR,OVC,0.00,WeatherDisplay:10.37,2013-03-07 19:11:00,
2013-03-07 14:16:00,65.3,41.0,30.22,NNW,339,6.3,13.8,41,0.00,CLR,OVC,0.00,WeatherDisplay:10.37,2013-03-07 19:16:00,
2013-03-07 14:21:00,64.7,39.8,30.21,North,360,9.4,13.8,40,0.00,CLR,OVC,0.00,WeatherDisplay:10.37,2013-03-07 19:21:00,
2013-03-07 14:26:00,65.1,40.8,30.22,NNE,23,6.5,12.7,41,0.00,CLR,OVC,0.00,WeatherDisplay:10.37,2013-03-07 19:26:00,
2013-03-07 14:31:00,65.4,42.9,30.22,NW,311,7.7,12.7,44,0.00,CLR,OVC,0.00,WeatherDisplay:10.37,2013-03-07 19:31:00,
2013-03-07 14:36:00,65.1,42.0,30.22,WNW,291,7.5,12.7,43,0.00,CLR,OVC,0.00,WeatherDisplay:10.37,2013-03-07 19:36:00,
2013-03-07 14:41:00,64.0,41.6,30.22,NW,325,6.8,12.7,44,0.00,CLR,OVC,0.00,WeatherDisplay:10.37,2013-03-07 19:41:00,
2013-03-07 14:46:00,64.8,42.9,30.22,North,360,7.4,15.0,45,0.00,CLR,OVC,0.00,WeatherDisplay:10.37,2013-03-07 19:46:00,
2013-03-07 14:52:00,64.9,43.0,30.22,NW,322,11.1,16.1,45,0.00,CLR,OVC,0.00,WeatherDisplay:10.37,2013-03-07 19:52:00,
2013-03-07 14:57:00,64.4,43.2,30.22,North,353,7.2,12.7,46,0.00,CLR,OVC,0.00,WeatherDisplay:10.37,2013-03-07 19:57:00,
2013-03-07 15:02:00,64.9,44.2,30.22,NW,320,8.3,18.4,47,0.00,CLR,OVC,0.00,WeatherDisplay:10.37,2013-03-07 20:02:00,
2013-03-07 15:07:00,65.4,44.1,30.21,North,349,9.6,13.8,46,0.00,CLR,OVC,0.00,WeatherDisplay:10.37,2013-03-07 20:07:00,
2013-03-07 15:13:00,65.0,44.3,30.21,NNW,337,7.9,13.8,47,0.00,CLR,OVC,0.00,WeatherDisplay:10.37,2013-03-07 20:13:00,
2013-03-07 15:18:00,65.0,44.3,30.21,NW,305,8.5,13.8,47,0.00,CLR,OVC,0.00,WeatherDisplay:10.37,2013-03-07 20:18:00,
2013-03-07 15:23:00,65.0,44.8,30.21,North,349,8.8,13.8,48,0.00,CLR,OVC,0.00,WeatherDisplay:10.37,2013-03-07 20:23:00,
2013-03-07 15:28:00,65.6,44.8,30.21,NNW,344,7.1,10.4,47,0.00,CLR,OVC,0.00,WeatherDisplay:10.37,2013-03-07 20:28:00,
2013-03-07 15:34:00,66.1,45.3,30.22,NW,312,8.1,13.8,47,0.00,CLR,OVC,0.00,WeatherDisplay:10.37,2013-03-07 20:34:00,
2013-03-07 15:39:00,66.0,45.2,30.22,NNW,343,5.9,11.5,47,0.00,CLR,OVC,0.00,WeatherDisplay:10.37,2013-03-07 20:39:00,
2013-03-07 15:44:00,64.6,43.9,30.22,NW,319,8.1,15.0,47,0.00,CLR,OVC,0.00,WeatherDisplay:10.37,2013-03-07 20:44:00,
2013-03-07 15:49:00,65.1,44.4,30.22,North,350,6.6,9.2,47,0.00,CLR,OVC,0.00,WeatherDisplay:10.37,2013-03-07 20:49:00,
2013-03-07 15:54:00,66.0,45.2,30.22,NNE,17,8.4,13.8,47,0.00,CLR,OVC,0.00,WeatherDisplay:10.37,2013-03-07 20:54:00,
2013-03-07 15:59:00,66.7,45.3,30.21,NNE,20,6.5,11.5,46,0.00,CLR,OVC,0.00,WeatherDisplay:10.37,2013-03-07 20:59:00,
2013-03-07 16:04:00,66.4,45.5,30.21,NW,305,6.6,10.4,47,0.00,CLR,OVC,0.00,WeatherDisplay:10.37,2013-03-07 21:04:00,
2013-03-07 16:09:00,66.3,46.0,30.20,West,265,6.6,11.5,48,0.00,CLR,OVC,0.00,WeatherDisplay:10.37,2013-03-07 21:09:00,
2013-03-07 16:14:00,66.4,45.5,30.20,NW,309,8.3,12.7,47,0.00,CLR,OVC,0.00,WeatherDisplay:10.37,2013-03-07 21:14:00,
2013-03-07 16:19:00,66.3,45.5,30.20,NW,312,6.0,15.0,47,0.00,CLR,OVC,0.00,WeatherDisplay:10.37,2013-03-07 21:19:00,
2013-03-07 16:25:00,66.3,45.5,30.20,NNW,343,5.0,12.0,47,0.00,CLR,OVC,0.00,WeatherDisplay:10.37,2013-03-07 21:25:00,
2013-03-07 16:30:00,65.4,45.7,30.20,NNW,329,6.6,9.2,49,0.00,CLR,OVC,0.00,WeatherDisplay:10.37,2013-03-07 21:30:00,
2013-03-07 16:35:00,65.6,45.9,30.20,North,0,6.5,10.4,49,0.00,CLR,OVC,0.00,WeatherDisplay:10.37,2013-03-07 21:35:00,
2013-03-07 16:40:00,65.1,46.0,30.20,NW,309,6.0,10.9,50,0.00,CLR,OVC,0.00,WeatherDisplay:10.37,2013-03-07 21:40:00,
2013-03-07 16:45:00,65.0,45.9,30.20,North,360,6.3,11.5,50,0.00,CLR,OVC,0.00,WeatherDisplay:10.37,2013-03-07 21:45:00,
2013-03-07 16:50:00,65.6,45.9,30.20,North,360,4.6,8.1,49,0.00,CLR,OVC,0.00,WeatherDisplay:10.37,2013-03-07 21:50:00,
2013-03-07 16:55:00,65.8,46.1,30.20,NW,323,5.6,9.1,49,0.00,CLR,OVC,0.00,WeatherDisplay:10.37,2013-03-07 21:55:00,
2013-03-07 17:00:00,65.6,45.9,30.19,WNW,291,5.0,10.4,49,0.00,CLR,OVC,0.00,WeatherDisplay:10.37,2013-03-07 22:00:00,
2013-03-07 17:05:00,65.5,46.4,30.19,WNW,289,4.7,11.5,50,0.00,CLR,OVC,0.00,WeatherDisplay:10.37,2013-03-07 22:05:00,
2013-03-07 17:10:00,65.4,46.3,30.19,North,352,4.9,10.4,50,0.00,CLR,OVC,0.00,WeatherDisplay:10.37,2013-03-07 22:10:00,
2013-03-07 17:15:00,65.3,46.2,30.19,WNW,292,4.7,6.9,50,0.00,CLR,OVC,0.00,WeatherDisplay:10.37,2013-03-07 22:15:00,
2013-03-07 17:20:00,64.8,46.8,30.19,NW,312,5.7,9.2,52,0.00,CLR,OVC,0.00,WeatherDisplay:10.37,2013-03-07 22:20:00,
2013-03-07 17:25:00,64.2,46.7,30.19,WNW,302,7.5,13.2,53,0.00,CLR,OVC,0.00,WeatherDisplay:10.37,2013-03-07 22:25:00,
2013-03-07 17:30:00,64.0,46.5,30.20,North,3,3.5,9.2,53,0.00,CLR,OVC,0.00,WeatherDisplay:10.37,2013-03-07 22:30:00,
2013-03-07 17:35:00,64.0,46.5,30.19,NW,313,3.8,5.8,53,0.00,CLR,OVC,0.00,WeatherDisplay:10.37,2013-03-07 22:35:00,
2013-03-07 17:40:00,64.4,46.4,30.19,West,280,5.7,9.2,52,0.00,CLR,OVC,0.00,WeatherDisplay:10.37,2013-03-07 22:40:00,
2013-03-07 17:45:00,64.2,46.2,30.19,North,353,3.4,6.9,52,0.00,CLR,OVC,0.00,WeatherDisplay:10.37,2013-03-07 22:45:00,
2013-03-07 17:50:00,63.7,46.2,30.19,WNW,282,6.3,11.5,53,0.00,CLR,OVC,0.00,WeatherDisplay:10.37,2013-03-07 22:50:00,
2013-03-07 17:55:00,63.2,46.3,30.19,NW,319,4.4,9.2,54,0.00,CLR,OVC,0.00,WeatherDisplay:10.37,2013-03-07 22:55:00,
2013-03-07 18:00:00,62.7,46.8,30.20,North,10,3.9,9.2,56,0.00,CLR,OVC,0.00,WeatherDisplay:10.37,2013-03-07 23:00:00,
2013-03-07 18:05:00,61.9,46.5,30.19,NW,315,4.5,8.1,57,0.00,CLR,OVC,0.00,WeatherDisplay:10.37,2013-03-07 23:05:00,
2013-03-07 18:10:00,61.1,46.7,30.20,NNW,332,7.0,11.5,59,0.00,CLR,OVC,0.00,WeatherDisplay:10.37,2013-03-07 23:10:00,
2013-03-07 18:15:00,60.3,46.8,30.20,NW,309,7.4,9.2,61,0.00,CLR,OVC,0.00,WeatherDisplay:10.37,2013-03-07 23:15:00,
2013-03-07 18:20:00,59.6,46.6,30.20,NW,312,5.2,9.2,62,0.00,CLR,OVC,0.00,WeatherDisplay:10.37,2013-03-07 23:20:00,
2013-03-07 18:25:00,59.2,47.0,30.20,NW,311,6.5,9.2,64,0.00,CLR,OVC,0.00,WeatherDisplay:10.37,2013-03-07 23:25:00,
2013-03-07 18:30:00,59.0,47.2,30.21,NW,326,3.0,6.4,65,0.00,CLR,OVC,0.00,WeatherDisplay:10.37,2013-03-07 23:30:00,
2013-03-07 18:35:00,58.8,47.5,30.21,NNW,335,5.6,10.4,66,0.00,CLR,OVC,0.00,WeatherDisplay:10.37,2013-03-07 23:35:00,
2013-03-07 18:40:00,58.4,47.1,30.21,NW,316,5.4,10.4,66,0.00,CLR,OVC,0.00,WeatherDisplay:10.37,2013-03-07 23:40:00,
2013-03-07 18:45:00,58.3,47.4,30.21,North,356,5.0,5.8,67,0.00,CLR,OVC,0.00,WeatherDisplay:10.37,2013-03-07 23:45:00,
2013-03-07 18:50:00,58.1,47.2,30.20,NNW,347,6.1,9.2,67,0.00,CLR,OVC,0.00,WeatherDisplay:10.37,2013-03-07 23:50:00,
2013-03-07 18:55:00,58.0,47.5,30.21,NNW,346,2.9,5.5,68,0.00,CLR,OVC,0.00,WeatherDisplay:10.37,2013-03-07 23:55:00,
2013-03-07 19:00:00,57.9,47.8,30.20,WNW,287,5.4,7.0,69,0.00,CLR,OVC,0.00,WeatherDisplay:10.37,2013-03-08 00:00:00,
2013-03-07 19:05:00,57.7,47.6,30.21,WNW,287,4.3,4.3,69,0.00,CLR,OVC,0.00,WeatherDisplay:10.37,2013-03-08 00:05:00,
2013-03-07 19:10:00,57.6,47.5,30.21,NW,308,5.7,8.1,69,0.00,CLR,OVC,0.00,WeatherDisplay:10.37,2013-03-08 00:10:00,
2013-03-07 19:15:00,57.5,47.8,30.21,North,349,3.3,5.8,70,0.00,CLR,OVC,0.00,WeatherDisplay:10.37,2013-03-08 00:15:00,
2013-03-07 19:20:00,57.5,47.8,30.21,NNW,347,3.6,6.9,70,0.00,CLR,OVC,0.00,WeatherDisplay:10.37,2013-03-08 00:20:00,
2013-03-07 19:25:00,57.4,48.1,30.21,NNW,339,2.2,4.6,71,0.00,CLR,OVC,0.00,WeatherDisplay:10.37,2013-03-08 00:25:00,
2013-03-07 19:30:00,57.3,47.6,30.22,NW,318,4.0,9.6,70,0.00,CLR,OVC,0.00,WeatherDisplay:10.37,2013-03-08 00:30:00,
2013-03-07 19:35:00,57.2,47.9,30.22,WNW,295,3.3,6.9,71,0.00,CLR,OVC,0.00,WeatherDisplay:10.37,2013-03-08 00:35:00,
2013-03-07 19:41:00,57.0,48.1,30.22,NNW,347,2.5,4.6,72,0.00,CLR,OVC,0.00,WeatherDisplay:10.37,2013-03-08 00:41:00,
2013-03-07 19:46:00,56.9,48.0,30.22,WNW,299,4.7,6.9,72,0.00,CLR,OVC,0.00,WeatherDisplay:10.37,2013-03-08 00:46:00,
2013-03-07 19:51:00,56.8,47.9,30.22,NNW,342,3.3,4.6,72,0.00,CLR,OVC,0.00,WeatherDisplay:10.37,2013-03-08 00:51:00,
2013-03-07 19:56:00,56.7,47.8,30.22,West,265,5.2,9.2,72,0.00,CLR,OVC,0.00,WeatherDisplay:10.37,2013-03-08 00:56:00,
2013-03-07 20:01:00,56.8,47.9,30.22,WNW,301,4.9,10.4,72,0.00,CLR,OVC,0.00,WeatherDisplay:10.37,2013-03-08 01:01:00,
2013-03-07 20:06:00,56.7,47.8,30.22,NNW,329,5.0,6.9,72,0.00,CLR,OVC,0.00,WeatherDisplay:10.37,2013-03-08 01:06:00,
2013-03-07 20:11:00,56.7,47.8,30.22,North,356,2.5,5.8,72,0.00,CLR,OVC,0.00,WeatherDisplay:10.37,2013-03-08 01:11:00,
2013-03-07 20:16:00,56.6,48.0,30.22,NNW,332,5.1,5.8,73,0.00,CLR,OVC,0.00,WeatherDisplay:10.37,2013-03-08 01:16:00,
2013-03-07 20:21:00,56.6,48.0,30.22,NW,316,4.4,5.5,73,0.00,CLR,OVC,0.00,WeatherDisplay:10.37,2013-03-08 01:21:00,
2013-03-07 20:27:00,56.5,48.3,30.22,WNW,285,3.5,5.8,74,0.00,CLR,OVC,0.00,WeatherDisplay:10.37,2013-03-08 01:27:00,
2013-03-07 20:32:00,56.4,47.9,30.22,NNW,335,4.2,10.4,73,0.00,CLR,OVC,0.00,WeatherDisplay:10.37,2013-03-08 01:32:00,
2013-03-07 20:37:00,56.4,48.2,30.22,NW,318,3.8,6.9,74,0.00,CLR,OVC,0.00,WeatherDisplay:10.37,2013-03-08 01:37:00,
2013-03-07 20:42:00,56.4,48.2,30.22,North,4,4.2,8.1,74,0.00,CLR,OVC,0.00,WeatherDisplay:10.37,2013-03-08 01:42:00,
2013-03-07 20:47:00,56.3,48.1,30.22,North,7,3.6,6.9,74,0.00,CLR,OVC,0.00,WeatherDisplay:10.37,2013-03-08 01:47:00,
2013-03-07 20:52:00,56.3,48.1,30.22,NW,306,3.5,9.2,74,0.00,CLR,OVC,0.00,WeatherDisplay:10.37,2013-03-08 01:52:00,
2013-03-07 20:58:00,56.2,48.0,30.22,NW,323,4.0,6.9,74,0.00,CLR,OVC,0.00,WeatherDisplay:10.37,2013-03-08 01:58:00,
2013-03-07 21:03:00,56.1,48.6,30.22,NW,313,3.6,8.1,76,0.00,CLR,OVC,0.00,WeatherDisplay:10.37,2013-03-08 02:03:00,
2013-03-07 21:08:00,56.2,48.7,30.22,NNE,18,1.5,5.8,76,0.00,CLR,OVC,0.00,WeatherDisplay:10.37,2013-03-08 02:08:00,
2013-03-07 21:13:00,56.2,48.7,30.22,North,352,1.1,4.4,76,0.00,CLR,OVC,0.00,WeatherDisplay:10.37,2013-03-08 02:13:00,
2013-03-07 21:18:00,56.2,48.7,30.22,NW,322,3.0,5.8,76,0.00,CLR,OVC,0.00,WeatherDisplay:10.37,2013-03-08 02:18:00,
2013-03-07 21:23:00,56.2,48.7,30.23,North,360,2.6,4.9,76,0.00,CLR,OVC,0.00,WeatherDisplay:10.37,2013-03-08 02:23:00,
2013-03-07 21:28:00,56.1,48.6,30.22,NNW,343,2.8,4.6,76,0.00,CLR,OVC,0.00,WeatherDisplay:10.37,2013-03-08 02:28:00,
2013-03-07 21:33:00,56.0,48.5,30.23,NW,318,4.0,6.9,76,0.00,CLR,OVC,0.00,WeatherDisplay:10.37,2013-03-08 02:33:00,
2013-03-07 21:38:00,56.0,48.5,30.23,NNW,342,2.6,3.5,76,0.00,CLR,OVC,0.00,WeatherDisplay:10.37,2013-03-08 02:38:00,
2013-03-07 21:43:00,56.0,48.5,30.23,NNW,329,2.7,4.6,76,0.00,CLR,OVC,0.00,WeatherDisplay:10.37,2013-03-08 02:43:00,
2013-03-07 21:48:00,56.0,48.9,30.23,North,8,3.0,4.6,77,0.00,CLR,OVC,0.00,WeatherDisplay:10.37,2013-03-08 02:48:00,
2013-03-07 21:53:00,55.8,48.3,30.23,North,0,1.9,5.8,76,0.00,CLR,OVC,0.00,WeatherDisplay:10.37,2013-03-08 02:53:00,
2013-03-07 21:59:00,55.9,48.4,30.23,NNW,340,1.7,3.5,76,0.00,CLR,OVC,0.00,WeatherDisplay:10.37,2013-03-08 02:59:00,
2013-03-07 22:04:00,56.0,48.9,30.23,North,7,1.0,2.3,77,0.00,CLR,OVC,0.00,WeatherDisplay:10.37,2013-03-08 03:04:00,
2013-03-07 22:09:00,56.0,48.5,30.23,North,6,0.0,0.0,76,0.00,CLR,OVC,0.00,WeatherDisplay:10.37,2013-03-08 03:09:00,
2013-03-07 22:14:00,55.9,48.4,30.23,North,6,0.0,0.0,76,0.00,CLR,OVC,0.00,WeatherDisplay:10.37,2013-03-08 03:14:00,
2013-03-07 22:19:00,55.8,48.7,30.23,North,6,0.0,0.0,77,0.00,CLR,OVC,0.00,WeatherDisplay:10.37,2013-03-08 03:19:00,
2013-03-07 22:24:00,55.5,48.4,30.23,North,6,0.0,0.0,77,0.00,CLR,OVC,0.00,WeatherDisplay:10.37,2013-03-08 03:24:00,
2013-03-07 22:29:00,55.3,48.2,30.23,North,6,0.0,0.0,77,0.00,CLR,OVC,0.00,WeatherDisplay:10.37,2013-03-08 03:29:00,
2013-03-07 22:34:00,55.0,48.3,30.23,North,6,0.0,0.0,78,0.00,CLR,OVC,0.00,WeatherDisplay:10.37,2013-03-08 03:34:00,
2013-03-07 22:39:00,54.8,48.1,30.23,North,6,0.0,0.0,78,0.00,CLR,OVC,0.00,WeatherDisplay:10.37,2013-03-08 03:39:00,
2013-03-07 22:44:00,54.5,47.8,30.23,North,6,0.0,0.0,78,0.00,CLR,OVC,0.00,WeatherDisplay:10.37,2013-03-08 03:44:00,
2013-03-07 22:49:00,54.3,47.6,30.23,North,6,0.0,0.0,78,0.00,CLR,OVC,0.00,WeatherDisplay:10.37,2013-03-08 03:49:00,
2013-03-07 22:54:00,54.1,47.7,30.23,North,6,0.0,0.0,79,0.00,CLR,OVC,0.00,WeatherDisplay:10.37,2013-03-08 03:54:00,
2013-03-07 22:59:00,53.9,47.5,30.23,North,6,0.0,0.0,79,0.00,CLR,OVC,0.00,WeatherDisplay:10.37,2013-03-08 03:59:00,
2013-03-07 23:04:00,53.6,47.6,30.22,North,6,0.0,0.0,80,0.00,CLR,OVC,0.00,WeatherDisplay:10.37,2013-03-08 04:04:00,
2013-03-07 23:09:00,53.4,47.4,30.22,North,6,0.0,0.0,80,0.00,CLR,OVC,0.00,WeatherDisplay:10.37,2013-03-08 04:09:00,
2013-03-07 23:15:00,53.2,47.5,30.23,North,6,0.0,0.0,81,0.00,CLR,OVC,0.00,WeatherDisplay:10.37,2013-03-08 04:15:00,
2013-03-07 23:20:00,53.1,47.1,30.23,North,6,0.0,0.0,80,0.00,CLR,OVC,0.00,WeatherDisplay:10.37,2013-03-08 04:20:00,
2013-03-07 23:25:00,53.0,47.0,30.23,North,6,0.0,0.0,80,0.00,CLR,OVC,0.00,WeatherDisplay:10.37,2013-03-08 04:25:00,
2013-03-07 23:30:00,52.8,47.1,30.22,North,6,0.0,0.0,81,0.00,CLR,OVC,0.00,WeatherDisplay:10.37,2013-03-08 04:30:00,
2013-03-07 23:35:00,52.6,46.9,30.22,North,6,0.0,0.0,81,0.00,CLR,OVC,0.00,WeatherDisplay:10.37,2013-03-08 04:35:00,
2013-03-07 23:40:00,52.4,46.7,30.22,North,6,0.0,0.0,81,0.00,CLR,OVC,0.00,WeatherDisplay:10.37,2013-03-08 04:40:00,
2013-03-07 23:45:00,52.3,47.0,30.23,North,6,0.0,0.0,82,0.00,CLR,OVC,0.00,WeatherDisplay:10.37,2013-03-08 04:45:00,
2013-03-07 23:50:00,52.2,46.9,30.23,North,6,0.0,0.0,82,0.00,CLR,OVC,0.00,WeatherDisplay:10.37,2013-03-08 04:50:00,
2013-03-07 23:55:00,52.2,46.9,30.23,North,6,0.0,0.0,82,0.00,CLR,OVC,0.00,WeatherDisplay:10.37,2013-03-08 04:55:00,